Location: Cerroniocc
(13.7547°S, 72.0222°W)
Time: 19:29:11
(UTC+00:00)

Cosmos 1674 - Pass Details

Date: 05 July 2020
Orbit: 493 x 519 km, 82.5° (Epoch: 11 August)

Event Time Altitude Azimuth Distance (km) Brightness Sun altitude
Rises 23:23:29 0° 191° (S) 2,636 6.2 -12.2°
Reaches altitude 10° 23:25:38 10° 195° (SSW) 1,747 5.3 -12.7°
Maximum altitude 23:29:24 57° 273° (W) 613 3.4 -13.5°
Drops below altitude 10° 23:33:09 10° 352° (N) 1,739 5.7 -14.4°
Sets 23:35:18 0° 356° (N) 2,622 6.6 -14.9°
